Temp_Advection
nan nan nan nan nan nan nan nan nan nan nan nan nan nan nan nan nan nan nan nan nan nan nan nan nan nan nan nan nan nan nan nan nan nan nan nan nan nan nan nan nan nan nan nan nan
nan -0 -0 -0 0 0 0 0 -0 -0 -0 -0 -0 -0 -0 -0 -0 -1 -0 -0 -0 0 -0 -0 0 0 0 -0 0 -0 -0 -1 -0 0 -0 -0 0 0 -0 -0 -0 -0 -0 0 nan
nan -0 -0 -0 -0 0 0 0 0 -0 -0 -0 -0 -0 -0 -0 -1 -0 -0 -0 0 0 0 0 0 0 -0 -0 0 -0 -0 0 -0 -0 -1 -0 -0 -0 -0 0 0 -0 -1 -0 nan
nan -0 -0 -0 -0 -0 -0 0 0 0 -0 -0 -0 -0 -0 -0 -0 0 0 0 0 -0 -0 0 -0 0 0 -0 -0 -0 -0 -1 -0 -1 -1 -0 -0 0 -0 -0 -0 -0 -1 -2 nan
nan -0 -0 -0 -0 -0 -0 -0 -0 0 0 -0 -0 -0 -0 -0 -1 0 -0 0 0 -0 -0 0 0 0 -0 -0 -0 0 -0 -1 0 0 -1 -1 -0 -0 -0 -0 -0 -0 -0 -1 nan
nan -0 -0 -0 -0 -0 -0 -0 -0 -0 0 0 -0 -0 0 -1 0 0 -0 -0 0 -0 -0 -0 -0 0 0 -0 -0 0 0 -1 -0 -3 -1 -0 0 0 0 0 -0 -0 -0 -0 nan
nan -0 -0 -0 -0 -0 -0 -0 -0 -0 -0 -0 -0 -0 -1 -3 0 0 0 -0 -0 -0 -0 -0 0 0 0 -0 -0 -0 0 -0 -0 -2 -1 -2 -0 -0 0 0 0 0 -0 0 nan
nan -0 -0 -0 -0 -0 -0 -0 -0 -0 -0 -0 -0 -0 -1 -0 0 -0 -0 -0 -0 -0 -0 -0 0 0 -0 -0 -1 -0 -0 -0 -0 -0 -1 -1 0 -0 1 0 -0 -0 0 -0 nan
nan -0 -0 -0 -0 -0 -0 0 0 0 -0 0 0 -0 -1 -0 -0 -0 -0 -0 -0 -0 -0 -0 -0 0 -0 -1 -1 -0 -0 -0 -0 0 -0 0 0 0 2 0 0 -1 -0 -0 nan
nan -0 -0 -0 -0 -0 -0 -0 0 0 0 0 0 -0 -1 -0 -0 -0 -0 0 -0 -0 -0 0 0 -0 -0 0 -0 -0 -0 -0 -0 -0 -0 0 1 -0 1 0 0 -0 -1 -0 nan
nan -0 -0 -0 -0 -0 -0 -0 -0 -0 -0 -0 -0 -1 -1 -0 -0 -0 0 0 0 1 0 -0 -0 0 -0 -1 -0 -0 -0 -0 -1 -0 0 0 0 1 0 0 -0 -0 0 0 nan
nan -0 0 0 -0 -0 0 -0 -0 0 -0 -1 -0 -1 -1 1 -1 -1 -0 -0 0 0 -0 -0 -0 -1 -1 -0 -0 0 0 -0 -1 -0 -0 0 1 -1 -1 -1 -0 -1 -1 -0 nan
nan -0 -0 -0 -0 0 0 0 0 0 -0 -1 -1 -2 -1 -0 -0 -1 -0 0 0 0 0 0 -1 -0 -0 -0 -0 0 -0 -0 -0 -0 0 -0 -0 -0 0 -0 -1 -2 0 0 nan
nan -0 -0 -0 0 0 0 0 -0 1 -0 -1 -0 -1 -1 0 -0 -1 -0 1 0 0 0 -0 -1 -0 0 -0 0 -0 -2 -0 0 -0 0 0 0 -0 0 -0 -1 -1 -0 -0 nan
nan -0 -0 -0 -0 0 0 -0 -0 -0 0 -0 -0 -0 0 0 -0 0 0 1 -0 -0 -0 -1 -0 0 -0 -0 -0 -1 -0 -0 0 -0 -0 -0 -0 -0 0 0 -0 -1 -1 0 nan
nan -0 -0 -0 -0 -0 -0 -0 -0 -0 -1 -0 -0 0 0 0 -0 -0 0 0 1 0 0 -1 -1 0 -0 -0 0 -0 0 -1 -1 -0 -0 -0 -0 -0 -0 -0 -0 -0 1 0 nan
nan -0 -0 -0 0 -0 -0 -0 -0 0 -1 -0 0 0 0 0 -0 0 0 0 1 -0 -0 -0 -0 -0 -0 0 -0 -0 -1 -0 0 -0 -0 -0 -0 -0 -0 -0 -0 -1 -1 -1 nan
nan -0 -0 -0 -0 -0 -0 -0 0 -1 -0 -0 0 -0 0 -0 -0 0 0 0 -0 -0 -0 0 -1 -1 -0 -0 0 1 -1 -0 -0 -0 -0 -0 -0 -0 -1 -0 -0 -1 -0 -1 nan
nan -0 0 -0 -0 0 -0 -0 -0 -1 -0 -0 -0 0 -0 -0 -0 0 0 -0 -0 -0 -1 -0 -1 -0 -0 0 -0 0 -0 -0 0 -0 0 -0 -1 -0 0 0 -0 0 1 0 nan
nan -0 -0 -0 -0 -0 -0 -0 -1 -1 -0 0 -0 -0 -0 -0 -0 -0 -0 -0 -0 -1 0 -0 -0 -1 -1 0 0 0 0 0 -0 -0 0 -0 -0 0 0 -0 -0 0 0 -1 nan
nan -0 0 -0 0 -0 -0 -1 -1 -1 -0 -0 0 0 0 0 -0 0 -0 -0 -0 0 -0 0 0 -2 -0 0 0 -0 0 -0 -0 0 0 -0 -0 -0 -1 -0 -0 0 0 -0 nan
nan -0 0 -0 -0 0 -0 -1 -0 -1 -1 -0 0 0 0 0 -0 -0 -0 -0 -0 0 -0 0 0 0 -1 -0 0 -0 0 -0 0 0 0 0 -1 -1 -0 -0 -1 -0 0 -0 nan
nan -0 -0 0 -0 -0 -1 -1 -0 -0 -0 -0 0 -0 -0 0 -0 -0 -0 -0 -1 -1 0 0 0 0 -1 -1 -0 0 0 -0 -0 0 -1 -0 -1 -0 0 -0 -1 0 1 0 nan
nan -0 0 1 0 0 0 -1 -1 -1 0 -0 0 0 -0 0 0 -0 -0 -0 -0 -0 0 -1 -0 0 0 -0 -0 -0 -0 0 -1 -0 -0 -1 -1 -0 0 0 0 -0 1 0 nan
nan 0 -0 -0 -0 -0 -0 -0 -1 -1 -0 -0 -0 0 0 0 0 -0 -0 -0 -0 -0 -1 -0 0 -0 -0 -0 -0 -0 -0 -0 -0 -0 -0 0 0 0 0 -0 -1 1 3 2 nan
nan -0 -0 -0 -0 -0 -0 -0 -0 -1 0 0 -0 -0 -0 0 0 0 -0 0 -0 -0 -0 -0 -0 -0 -0 -0 -0 -0 -0 -0 -0 -0 0 0 0 -0 -2 -0 -1 -0 1 1 nan
nan nan nan nan nan nan nan nan nan nan nan nan nan nan nan nan nan nan nan nan nan nan nan nan nan nan nan nan nan nan nan nan nan nan nan nan nan nan nan nan nan nan nan nan nan
Wind_Speed
8 9 9 8 9 9 9 9 7 7 7 7 7 7 8 10 9 11 11 6 3 6 5 7 7 4 6 9 10 6 3 3 2 0 5 8 11 16 11 12 2 9 26 37 41
9 9 9 9 9 9 9 9 9 8 7 7 7 8 9 10 11 15 7 9 6 5 8 9 10 8 9 6 4 4 3 8 5 1 9 10 16 11 6 12 10 21 26 30 48
8 9 9 9 9 9 9 9 9 9 9 8 7 8 8 8 10 5 4 13 10 7 10 11 11 12 6 10 10 7 4 2 5 10 19 13 10 4 6 4 6 25 29 42 43
9 8 9 9 9 10 10 9 9 9 9 9 8 7 8 5 3 4 3 8 8 8 10 10 6 4 2 6 7 3 9 17 12 23 15 8 9 3 16 11 18 25 26 38 42
9 9 9 9 9 10 9 9 9 9 10 9 9 7 6 5 11 4 4 1 8 11 12 10 10 8 2 6 7 6 5 22 27 8 26 30 18 8 6 18 19 23 24 27 39
9 9 9 9 9 9 9 9 9 9 9 10 9 8 5 5 2 2 3 3 8 10 12 11 8 7 15 6 6 5 14 16 7 37 32 16 6 5 12 12 12 25 27 24 34
9 9 10 10 10 9 8 9 9 8 8 8 9 9 11 17 4 7 4 2 4 6 10 7 10 12 18 10 14 14 4 7 3 20 9 20 3 4 18 12 20 31 32 30 23
9 10 10 10 10 10 9 8 8 8 7 7 8 9 10 6 15 13 9 7 10 12 15 11 14 20 14 14 12 5 4 1 6 8 22 15 6 7 25 21 34 33 33 35 35
9 9 10 10 10 10 8 8 8 7 7 6 6 7 11 5 15 16 15 11 10 11 13 11 13 11 10 4 6 5 4 5 5 7 8 9 5 8 27 30 28 28 29 33 36
9 9 10 10 10 9 8 7 6 6 7 7 9 8 7 3 11 11 18 14 11 10 10 10 5 1 5 4 5 6 5 8 4 4 7 8 7 13 24 26 27 31 27 33 30
9 10 10 10 10 9 5 3 5 3 8 10 7 13 16 9 6 11 14 15 14 10 1 8 3 5 11 9 8 7 8 8 17 7 5 9 8 21 25 17 18 23 22 32 36
9 9 9 9 8 6 5 6 7 7 12 19 21 27 27 23 11 8 11 14 7 5 1 5 5 11 10 10 11 14 12 14 10 12 7 6 11 19 20 27 33 35 40 32 37
8 9 8 7 4 2 6 7 8 12 5 13 18 24 24 6 10 16 7 14 4 5 5 6 9 5 7 13 11 14 5 8 6 8 2 5 6 6 18 16 29 39 36 30 40
8 8 8 4 1 2 8 6 8 10 4 7 4 7 20 14 7 22 21 13 4 9 6 7 13 9 10 8 4 9 20 14 5 4 3 3 5 6 4 17 23 34 25 23 32
8 7 8 3 2 4 3 1 1 2 4 3 4 3 9 14 2 5 19 16 8 8 6 9 5 7 6 11 5 11 11 7 3 4 2 5 4 7 2 3 10 19 38 31 29
8 8 7 3 5 3 1 1 3 5 3 2 6 6 6 13 9 4 7 18 19 5 3 11 15 4 9 10 6 7 6 6 6 4 3 6 5 7 3 6 5 16 30 36 32
8 8 6 5 6 2 2 2 5 3 6 3 3 5 5 5 4 5 4 4 6 3 4 7 9 7 7 6 7 4 6 5 6 5 7 6 3 9 5 8 5 9 25 30 42
8 7 5 4 9 1 2 4 3 6 5 5 4 3 6 7 7 5 2 6 5 5 4 3 9 7 5 8 9 7 8 6 7 3 7 1 2 7 10 15 12 17 9 29 37
6 3 1 4 10 5 2 4 6 4 6 5 9 4 4 5 4 3 9 8 9 10 9 5 7 2 2 6 9 10 3 7 6 3 3 4 7 5 1 3 8 20 15 24 39
5 4 2 4 11 8 5 4 4 5 8 6 5 3 4 4 3 4 4 6 9 12 8 8 5 11 11 1 5 8 5 1 3 2 4 5 5 6 7 10 9 10 14 23 33
5 3 5 8 11 2 3 6 6 16 8 3 3 3 3 3 4 3 4 9 4 8 11 8 6 19 3 5 7 3 1 3 5 5 5 3 6 7 11 9 12 2 8 15 32
3 2 11 12 2 1 2 5 4 17 28 6 2 3 3 3 4 2 3 5 11 5 4 9 7 7 12 8 6 6 9 5 5 7 4 5 8 6 11 8 9 9 6 9 23
4 3 16 12 0 3 6 8 7 5 6 4 1 2 1 3 4 1 7 7 13 5 3 2 1 2 9 8 5 2 3 4 2 4 6 5 7 4 5 7 15 24 16 10 6
3 3 4 20 10 2 5 8 7 14 7 3 3 3 2 4 3 4 6 5 6 7 13 5 3 6 6 6 2 5 7 3 5 3 5 6 7 5 2 6 5 5 17 8 30
5 2 4 3 5 5 3 5 10 7 5 4 4 4 5 5 5 6 5 7 6 10 5 5 2 1 5 2 4 4 5 9 3 8 5 9 9 8 9 7 7 16 28 26 19
5 6 8 8 11 6 5 5 6 16 2 5 3 5 7 4 3 5 4 4 4 5 4 5 2 4 7 5 7 6 12 8 5 5 5 6 8 8 21 19 15 17 34 27 26
5 4 3 7 6 3 2 6 11 9 7 11 4 3 6 4 13 15 9 4 4 1 2 2 3 3 5 4 8 7 3 3 5 3 5 6 6 10 6 9 18 16 20 9 17
Wind_Direction
330 330 328 330 333 338 340 342 339 335 329 316 309 302 292 286 280 275 259 235 223 253 296 254 268 266 277 253 243 179 72 296 256 16 96 78 92 59 55 100 149 202 157 159 165
327 326 326 324 327 330 335 336 336 334 333 322 315 306 298 296 289 264 251 222 215 243 272 266 265 293 288 261 244 128 161 219 201 13 154 126 114 100 71 61 75 112 141 155 164
327 325 325 324 325 325 327 329 331 331 330 325 321 311 300 306 309 292 237 217 232 250 268 264 271 292 264 256 195 179 200 114 245 109 131 113 104 75 109 34 165 148 143 150 158
328 330 327 326 323 319 317 321 326 326 326 324 321 312 303 296 216 61 99 204 217 235 254 262 273 292 283 315 191 206 242 265 260 126 118 93 122 132 156 190 150 159 159 163 165
329 330 327 321 319 317 314 315 320 320 320 321 321 315 305 267 242 27 26 266 220 238 248 264 289 290 233 284 268 252 233 239 249 176 138 160 165 169 214 136 153 171 179 173 183
327 327 325 321 318 315 313 311 312 313 314 318 318 313 291 262 86 145 350 273 223 236 248 252 263 297 300 286 324 306 254 240 212 140 159 159 142 103 205 172 171 174 188 201 186
325 325 324 323 317 312 309 307 305 306 307 311 311 304 274 240 139 178 195 307 260 253 258 271 299 279 293 309 327 334 227 250 300 138 159 109 169 227 190 157 144 170 188 204 209
327 326 325 323 319 315 312 304 299 297 298 303 300 301 266 255 243 231 209 238 255 262 268 288 292 284 280 303 335 333 1 352 267 184 173 169 225 190 183 181 184 179 185 200 208
328 326 326 326 321 316 313 303 294 296 293 289 285 295 270 256 215 218 202 248 249 246 260 272 276 264 314 21 355 8 256 249 279 212 132 230 241 175 188 196 193 195 195 200 209
329 327 328 328 326 323 320 313 301 288 290 285 264 299 257 288 231 235 224 236 238 266 282 257 272 68 343 73 248 282 339 315 248 241 181 232 246 172 192 199 201 204 198 207 210
330 330 329 333 330 334 345 358 1 31 311 257 287 257 278 305 293 258 237 216 228 262 193 290 113 212 248 247 250 258 271 270 281 254 168 221 239 184 194 206 219 207 214 206 214
328 327 328 331 329 342 40 55 32 334 296 273 259 263 264 273 295 290 206 192 195 222 94 357 227 231 236 258 265 275 276 279 260 261 161 231 247 185 183 207 198 203 225 212 210
328 327 326 324 326 28 27 42 26 343 291 285 240 235 243 235 238 255 208 196 161 202 237 185 244 249 224 266 277 281 242 276 249 297 254 120 319 145 209 221 200 218 223 224 206
327 326 323 321 184 8 54 46 1 326 32 278 204 241 225 237 282 240 232 233 172 201 231 235 261 242 262 265 225 266 277 270 312 14 223 152 260 310 103 208 198 209 220 223 208
326 324 317 300 204 110 6 242 345 330 14 142 174 189 189 185 291 10 211 214 201 208 119 242 281 273 248 244 183 243 279 250 278 335 59 306 88 268 122 160 198 197 219 218 207
325 316 305 287 211 192 295 199 336 46 282 258 148 168 111 214 243 292 195 217 231 201 194 238 266 198 232 268 200 255 278 9 38 61 350 248 124 283 230 216 140 223 211 205 197
319 307 285 250 159 195 226 324 52 123 314 335 214 162 175 192 257 191 238 192 179 132 296 309 276 271 224 289 313 58 53 339 348 357 238 324 64 240 230 214 218 170 189 186 191
313 303 278 216 186 213 350 59 103 241 267 281 263 120 181 171 238 206 172 222 244 119 111 169 320 221 244 187 228 256 156 159 222 223 277 5 236 250 223 199 197 164 213 196 197
325 319 34 157 186 179 58 69 212 246 296 357 358 96 347 21 39 280 197 211 214 172 173 164 260 274 208 258 141 267 218 187 125 141 47 263 290 330 310 215 213 201 230 200 203
344 306 199 133 163 151 76 243 255 254 316 12 50 80 356 309 40 27 219 215 223 196 170 225 267 260 271 249 264 178 179 316 5 226 283 294 290 237 222 240 200 183 193 199 208
29 2 148 130 146 142 154 236 280 291 308 59 304 305 286 318 1 354 254 272 238 243 177 179 149 266 74 191 231 347 249 91 127 141 177 264 264 228 253 199 198 135 119 261 225
346 20 173 163 105 226 183 212 258 293 294 273 222 265 248 276 277 316 291 257 355 269 164 217 171 220 249 261 216 181 211 159 133 268 221 174 261 253 257 209 250 196 64 36 209
356 306 177 188 132 278 284 283 262 292 265 166 266 160 75 308 323 266 317 316 38 60 84 335 300 66 342 343 22 49 196 198 99 88 227 184 266 286 257 334 209 195 101 28 3
15 20 176 215 260 312 323 294 307 334 346 19 256 327 351 323 190 280 318 340 36 20 15 91 65 144 179 213 222 292 308 251 159 135 229 215 254 264 333 149 122 199 150 167 237
29 351 20 306 313 305 245 265 294 314 304 345 328 269 263 267 298 312 330 322 14 13 37 81 48 332 208 222 65 321 331 325 232 245 174 260 209 222 206 187 239 160 162 181 194
32 9 339 295 295 344 13 348 328 343 240 320 62 3 25 45 42 304 351 12 261 347 53 359 312 4 315 34 48 317 306 297 293 282 269 267 286 236 236 188 185 173 197 199 211
7 345 327 300 327 13 260 325 326 358 313 346 8 34 348 272 333 321 294 294 214 232 149 92 101 39 276 348 356 322 264 354 277 269 303 31 301 333 277 215 182 102 115 158 203
Height
1514 1513 1513 1512 1511 1510 1509 1508 1507 1506 1505 1505 1504 1503 1503 1502 1503 1501 1501 1502 1502 1504 1504 1504 1504 1507 1511 1511 1512 1509 1519 1520 1512 1505 1513 1501 1497 1499 1504 1502 1503 1501 1501 1507 1513
1513 1512 1512 1511 1510 1509 1508 1507 1506 1505 1505 1504 1503 1502 1501 1500 1499 1498 1500 1500 1501 1502 1503 1503 1503 1506 1507 1507 1507 1508 1519 1507 1498 1497 1501 1502 1496 1496 1504 1506 1505 1503 1507 1509 1514
1513 1512 1511 1510 1509 1508 1507 1506 1505 1504 1504 1503 1502 1501 1500 1500 1498 1496 1495 1497 1499 1500 1501 1502 1504 1506 1504 1500 1499 1501 1506 1495 1492 1494 1496 1501 1505 1504 1506 1510 1508 1507 1509 1511 1514
1512 1511 1510 1509 1508 1506 1506 1505 1504 1503 1502 1502 1501 1500 1499 1500 1503 1495 1494 1496 1498 1499 1499 1501 1502 1503 1503 1502 1498 1499 1488 1489 1491 1490 1501 1506 1507 1510 1496 1495 1503 1508 1512 1512 1512
1511 1510 1509 1508 1507 1506 1505 1504 1503 1502 1501 1500 1499 1499 1498 1499 1494 1494 1495 1495 1497 1498 1498 1499 1499 1498 1503 1499 1497 1495 1488 1485 1483 1495 1495 1497 1492 1497 1497 1498 1504 1509 1512 1515 1514
1510 1509 1508 1506 1505 1504 1503 1502 1501 1501 1500 1499 1498 1497 1498 1498 1492 1493 1495 1495 1496 1497 1497 1497 1497 1499 1497 1494 1496 1490 1486 1481 1481 1485 1492 1496 1501 1499 1498 1498 1503 1507 1512 1516 1517
1509 1508 1507 1505 1504 1503 1502 1501 1500 1499 1498 1497 1496 1495 1495 1489 1491 1491 1493 1495 1496 1496 1496 1496 1497 1498 1496 1491 1486 1486 1489 1482 1480 1487 1493 1498 1510 1500 1500 1502 1502 1498 1504 1510 1514
1508 1506 1505 1503 1502 1501 1500 1499 1498 1498 1497 1496 1495 1494 1489 1486 1487 1488 1491 1492 1494 1495 1495 1495 1496 1496 1495 1491 1487 1488 1487 1498 1482 1481 1491 1488 1504 1493 1495 1498 1491 1492 1495 1500 1507
1507 1505 1504 1502 1500 1499 1498 1497 1496 1495 1495 1495 1494 1493 1485 1483 1483 1487 1489 1490 1492 1493 1494 1494 1496 1496 1493 1497 1505 1498 1513 1501 1488 1474 1483 1487 1490 1490 1491 1493 1490 1492 1494 1496 1502
1505 1504 1503 1501 1499 1497 1496 1495 1494 1494 1494 1493 1493 1494 1482 1481 1482 1484 1487 1489 1491 1491 1492 1492 1494 1497 1498 1508 1528 1513 1509 1498 1490 1476 1477 1480 1484 1487 1488 1490 1487 1489 1493 1493 1497
1503 1502 1501 1499 1498 1496 1496 1495 1497 1496 1493 1490 1488 1485 1480 1482 1482 1482 1483 1487 1489 1491 1494 1491 1500 1510 1501 1495 1495 1500 1502 1502 1485 1470 1476 1479 1479 1485 1485 1491 1491 1490 1486 1487 1491
1502 1501 1499 1498 1497 1496 1496 1497 1499 1501 1491 1485 1483 1481 1479 1483 1485 1479 1482 1486 1486 1492 1491 1498 1506 1492 1489 1489 1491 1492 1498 1494 1481 1467 1474 1476 1477 1479 1482 1479 1479 1483 1474 1480 1486
1501 1500 1499 1497 1496 1497 1497 1499 1499 1498 1494 1477 1475 1476 1476 1480 1480 1477 1479 1482 1485 1490 1491 1503 1492 1485 1489 1489 1494 1491 1497 1489 1487 1471 1464 1470 1484 1477 1480 1476 1481 1477 1473 1479 1481
1500 1499 1498 1497 1499 1497 1497 1498 1498 1498 1506 1482 1472 1470 1474 1477 1476 1471 1475 1480 1483 1490 1492 1495 1483 1486 1488 1491 1489 1506 1474 1477 1478 1487 1500 1470 1513 1481 1475 1472 1473 1471 1476 1476 1478
1499 1498 1496 1497 1497 1498 1498 1496 1496 1496 1519 1468 1469 1468 1467 1474 1471 1467 1472 1477 1482 1484 1488 1493 1483 1485 1490 1485 1481 1489 1472 1474 1472 1483 1487 1482 1500 1485 1474 1472 1471 1470 1464 1469 1475
1498 1496 1495 1496 1496 1497 1496 1495 1495 1509 1511 1471 1464 1466 1470 1471 1469 1469 1473 1475 1476 1480 1481 1482 1476 1478 1478 1471 1474 1470 1473 1476 1483 1493 1515 1490 1496 1493 1480 1470 1466 1465 1458 1461 1471
1496 1495 1494 1494 1496 1495 1495 1495 1510 1520 1475 1474 1471 1466 1469 1472 1471 1471 1473 1476 1485 1497 1500 1485 1480 1471 1470 1476 1467 1470 1494 1523 1524 1529 1524 1486 1497 1488 1463 1457 1455 1457 1457 1458 1463
1494 1493 1492 1493 1495 1495 1495 1498 1512 1489 1481 1468 1466 1469 1475 1470 1471 1470 1474 1483 1474 1479 1499 1503 1506 1471 1463 1469 1477 1477 1490 1523 1534 1536 1517 1486 1498 1480 1450 1442 1447 1450 1456 1461 1461
1493 1492 1491 1492 1493 1495 1496 1514 1506 1487 1475 1472 1469 1475 1478 1471 1474 1474 1475 1477 1470 1471 1494 1504 1496 1462 1462 1462 1469 1473 1488 1477 1503 1507 1523 1503 1477 1456 1452 1448 1446 1442 1448 1453 1458
1492 1492 1492 1492 1492 1495 1499 1507 1493 1478 1475 1471 1484 1480 1489 1483 1479 1478 1475 1460 1463 1460 1460 1473 1495 1462 1458 1457 1456 1464 1460 1490 1509 1516 1523 1513 1491 1488 1462 1453 1444 1446 1448 1450 1455
1493 1492 1493 1493 1494 1496 1507 1502 1485 1474 1474 1474 1478 1481 1479 1480 1476 1478 1473 1458 1454 1451 1455 1462 1478 1463 1461 1466 1469 1468 1473 1477 1491 1507 1522 1529 1508 1461 1453 1445 1440 1438 1439 1446 1451
1494 1495 1493 1493 1497 1496 1501 1489 1482 1476 1472 1472 1470 1471 1475 1476 1477 1474 1472 1467 1456 1453 1458 1452 1469 1486 1467 1451 1451 1455 1464 1471 1503 1501 1505 1505 1494 1445 1441 1440 1437 1438 1438 1435 1440
1494 1494 1494 1494 1501 1499 1489 1484 1481 1474 1469 1468 1471 1470 1470 1475 1481 1470 1466 1458 1452 1452 1459 1454 1475 1493 1481 1462 1454 1456 1457 1463 1474 1486 1491 1504 1487 1440 1437 1436 1434 1434 1430 1429 1440
1495 1496 1494 1494 1492 1493 1494 1487 1480 1471 1469 1467 1468 1467 1468 1473 1471 1474 1468 1456 1454 1454 1452 1449 1471 1479 1495 1479 1469 1469 1464 1461 1472 1496 1481 1485 1463 1442 1439 1437 1433 1429 1426 1425 1435
1497 1498 1498 1499 1493 1492 1490 1485 1482 1477 1467 1467 1469 1469 1470 1473 1471 1471 1464 1459 1455 1454 1454 1459 1478 1475 1471 1465 1464 1469 1466 1462 1465 1466 1474 1458 1461 1442 1435 1440 1439 1428 1423 1427 1433
1500 1501 1498 1496 1492 1490 1487 1486 1484 1476 1471 1471 1473 1471 1471 1476 1475 1477 1468 1465 1464 1458 1460 1463 1474 1473 1470 1463 1467 1468 1459 1457 1455 1449 1450 1450 1450 1435 1423 1425 1432 1431 1427 1430 1436
1502 1502 1501 1495 1492 1492 1490 1489 1484 1482 1473 1472 1469 1469 1470 1468 1466 1464 1463 1460 1460 1462 1466 1469 1474 1481 1486 1472 1468 1475 1459 1457 1455 1452 1451 1464 1453 1436 1430 1424 1420 1420 1422 1430 1440